Location: Fernhill
(41.0167°S, 175.6333°E)
Time: 10:05:37
(UTC+00:00)

Cosmos 1892 Rocket - Pass Details

Date: 08 November 2025
Orbit: 600 x 625 km, 82.5° (Epoch: 11 December)

Event Time Altitude Azimuth Distance (km) Brightness Sun altitude
Exits shadow 09:57:14 49° 289° (WNW) 817 4.1 -25.5°
Maximum altitude 09:57:49 53° 259° (W) 780 4.2 -25.6°
Drops below altitude 10° 10:02:14 10° 182° (S) 2,036 7.0 -26.0°
Sets 10:04:33 0° 177° (S) 2,951 7.9 -26.3°
